User: anonymous   Login
Location: Unspecified
(0.0000°N, 0.0000°E)
Time: 01:46:26
(UTC+00:00)
Language:

USA 215 - Orbit

View from above orbital plane
View from above orbital plane
View from above satellite
View from above satellite

Ground track
Ground track

The orbit data is extracted from the following two-line orbital elements,

1 37162U 10046A   23080.88693828 0.00000000  00000-0  00000-0 0    08
2 37162 122.9992 223.9918 0008793 171.6307 188.4265 13.41437399    09
Epoch (UTC): 21 March 2023 21:17:11
Eccentricity: 0.0008793
inclination: 122.9992°
perigee height: 1097 km
apogee height: 1110 km
right ascension of ascending node: 223.9918°
argument of perigee: 171.6307°
revolutions per day: 13.41437399
mean anomaly at epoch: 188.4265°
orbit number at epoch: 0

The dashed part of the orbit path shows where the satellite is in the earth's shadow,  

DLR